Regional Weather Roundup
Issued by NWS Kansas City/Pleasant Hill, MO

Home | Current Version | Previous Version | Graphics & Text | Print | Product List | Glossary Off
Versions: 1 2 3 4 5 6 7 8 9 10 11 12 13 14 15 16 17 18 19 20 21 22 23 24 25 26 27 28 29 30 31 32 33 34 35 36 37 38 39 40 41 42 43 44 45 46 47 48 49 50

000
ASUS43 KEAX 121310
RWREAX

WEATHER ROUNDUP FOR EASTERN KANSAS AND NORTHWEST MISSOURI
NATIONAL WEATHER SERVICE KANSAS CITY/PLEASANT HILL MO
700 AM CST FRI FEB 12 2016

KSZ040-057-103>105-MOZ028-029-037-043-121400-
...KANSAS CITY METROPOLITAN AREA...

CITY           SKY/WX    TMP DP  RH WIND       PRES   REMARKS
K.C. INTL      CLOUDY    29  22  75 N10       30.31R WCI  20
K.C. DOWNTOWN  CLOUDY    30  21  69 N5        30.32R WCI  25
LEES SUMMIT    CLEAR     26  20  77 NW6       30.30R WCI  19
OLATHE - IXD   CLOUDY    26  21  81 N9        30.31R WCI  17
OLATHE - OJC   CLEAR     28  20  71 N9        30.30R WCI  19
LAWRENCE       CLOUDY    28  24  85 NW7       30.33R WCI  21

$$

MOZ001>008-011>017-020>025-030>033-038>040-044>046-053-054-121400-
...NORTHERN AND CENTRAL MISSOURI...

CITY           SKY/WX    TMP DP  RH WIND       PRES   REMARKS
ST. JOSEPH     CLOUDY    29  20  69 N12       30.34R WCI  19
MOSBY          CLOUDY    28  19  69 NW5       30.32R WCI  23
WARRENSBURG    CLOUDY    27  23  86 NW7       30.30R WCI  19
WHITEMAN AFB   MOCLDY    26  24  91 NW7       30.27R WCI  18
CLINTON          N/A     32  28  86 N8        30.28R WCI  25
SEDALIA        CLOUDY    28  23  81 NW7       30.27R WCI  21
WARSAW         NOT AVBL
CHILLICOTHE      N/A     26  19  74 NW3       30.32R
KIRKSVILLE     CLOUDY    22  17  81 W5        30.26R WCI  16

$$

MOZ041-047>049-056>058-063>065-088>090-097-121400-
...EASTERN AND SOUTHERN MISSOURI...

CITY           SKY/WX    TMP DP  RH WIND       PRES   REMARKS
ST. LOUIS INTL CLOUDY    27  22  81 NW5       30.24R WCI  22
SPIRIT OF STL  CLOUDY    27  21  80 N3        30.24R
COLUMBIA       CLOUDY    25  22  88 N3        30.24R
JEFFERSON CITY CLOUDY    27  22  81 NW3       30.26R
ROLLA          CLOUDY    26  23  88 NW6       30.19R WCI  19
OSAGE BEACH    CLOUDY    28  19  69 NW3       30.23R
SPRINGFIELD    CLEAR     28  20  71 NW5       30.20R WCI  23
BRANSON        CLEAR     34  25  69 W7        30.20R WCI  28
JOPLIN         CLEAR     25  21  85 CALM      30.25R
WEST PLAINS    PTCLDY    23  18  81 CALM      30.20R

$$

IAZ060-094-KSZ022-034>040-054-083-096-NEZ052-066-093-121400-
...KANSAS...SOUTHEAST NEBRASKA AND IOWA...

CITY           SKY/WX    TMP DP  RH WIND       PRES   REMARKS
TOPEKA         CLOUDY    30  23  75 N7        30.33R WCI  23
MANHATTAN      CLOUDY    29  25  85 NW3       30.35R
EMPORIA        PTCLDY    24  21  88 NW7       30.31R WCI  16
CHANUTE        CLEAR     29  23  78 N10       30.28R WCI  20
WICHITA        PTCLDY    33  28  81 N14       30.31R WCI  23
OMAHA          CLOUDY    20  17  88 N9        30.37R WCI   9
LINCOLN        PTCLDY    23  18  81 N12       30.39R WCI  12
FALLS CITY     CLOUDY    29  22  75 N13       30.34R WCI  19
LAMONI         CLOUDY    23  18  81 NW20      30.28R WCI   8
DES MOINES     CLOUDY    20  12  71 NW14      30.31R WCI   7

$$




USA.gov is the U.S. government's official web portal to all federal, state and local government web resources and services.